Simultaneous Nadir Overpasses (SNOs) Predictions

Prediction of SNOs between GOES-16 and METOP-C Satellite Orbit:

Table of predicted SNOs for the next 14.0 days since TLE Epoch: 2/1/2020
Index Date Time (GOES-16) GOES-16 Lat,Lon METOP-C Lat,Lon Distance(km) Time Diff (sec)
1 02/02/2020 02:27:56 0.00, -75.20 0.27, -73.91 146.45 80
2 02/03/2020 14:43:51 -0.01, -75.21 0.68, -78.40 363.50 80
3 02/04/2020 14:25:39 -0.01, -75.21 -0.42, -73.36 211.48 80
4 02/06/2020 02:41:41 0.01, -75.21 -0.60, -77.87 304.46 80
5 02/07/2020 02:23:31 0.01, -75.21 0.56, -72.84 270.68 80
6 02/08/2020 14:39:24 -0.02, -75.22 0.46, -77.32 238.99 80
7 02/09/2020 14:21:14 -0.01, -75.23 -0.70, -72.28 336.47 80
8 02/11/2020 02:37:16 0.01, -75.23 -0.31, -76.80 178.42 80
9 02/12/2020 02:19:05 0.01, -75.24 0.79, -71.75 397.47 80
10 02/13/2020 14:34:59 -0.02, -75.26 0.19, -76.24 111.23 80
11 02/14/2020 14:16:47 -0.01, -75.28 -0.91, -71.19 464.96 80




NCC Satellite Simultaneous Nadir Overpasses (SNOs) Prediction Service
